| time (UTC) | temp F | wind direction | speed MPH | gust MPH | rain 1hr in | rain 24hr in | rain mn in | humidity % | barometer mb |
| 20260506210819 | 59 | 211 | 3.0 | 9.0 | 0.00 | 0.00 | 0.00 | 89 | 995.5 |
| 20260506205805 | 59 | 214 | 3.0 | 15.0 | 0.00 | 0.00 | 0.00 | 89 | 995.8 |
| 20260506204756 | 59 | 189 | 3.0 | 15.0 | 0.00 | 0.00 | 0.00 | 89 | 995.8 |
| 20260506202640 | 59 | 230 | 2.0 | 11.0 | 0.00 | 0.00 | 0.00 | 89 | 995.8 |
| 20260506201627 | 59 | 246 | 3.0 | 11.0 | 0.00 | 0.00 | 0.00 | 88 | 995.8 |
| 20260506200607 | 59 | 250 | 3.0 | 13.0 | 0.00 | 0.00 | 0.00 | 89 | 995.7 |
| 20260506195608 | 59 | 271 | 3.0 | 13.0 | 0.00 | 0.00 | 0.00 | 88 | 995.5 |
| 20260506194546 | 60 | 222 | 3.0 | 12.0 | 0.00 | 0.00 | 0.00 | 88 | 995.5 |
| 20260506193548 | 60 | 213 | 3.0 | 12.0 | 0.00 | 0.00 | 0.00 | 88 | 995.3 |
| 20260506192523 | 60 | 216 | 3.0 | 11.0 | 0.00 | 0.00 | 0.00 | 88 | 995.5 |
| 20260506191522 | 61 | 248 | 3.0 | 12.0 | 0.00 | 0.00 | 0.00 | 88 | 995.5 |
| 20260506190511 | 61 | 215 | 4.0 | 12.0 | 0.00 | 0.00 | 0.00 | 89 | 995.7 |
| 20260506185524 | 61 | 200 | 4.0 | 11.0 | 0.00 | 0.00 | 0.00 | 88 | 995.4 |
| 20260506184519 | 62 | 254 | 3.0 | 12.0 | 0.00 | 0.00 | 0.00 | 89 | 995.4 |
| 20260506183529 | 62 | 227 | 3.0 | 12.0 | 0.00 | 0.00 | 0.00 | 89 | 995.3 |
| 20260506182532 | 63 | 197 | 3.0 | 13.0 | 0.00 | 0.00 | 0.00 | 88 | 995.2 |
| 20260506181552 | 65 | 201 | 4.0 | 13.0 | 0.00 | 0.00 | 0.00 | 86 | 995.2 |
| 20260506180610 | 68 | 197 | 3.0 | 9.0 | 0.00 | 0.00 | 0.00 | 84 | 995.1 |
| 20260506175633 | 69 | 198 | 3.0 | 8.0 | 0.00 | 0.00 | 0.00 | 85 | 994.7 |
| 20260506174648 | 69 | 175 | 2.0 | 6.0 | 0.00 | 0.00 | 0.00 | 83 | 994.7 |
| 20260506173707 | 69 | 323 | 2.0 | 6.0 | 0.00 | 0.00 | 0.00 | 85 | 994.6 |
| 20260506172712 | 68 | 252 | 1.0 | 5.0 | 0.00 | 0.00 | 0.00 | 88 | 994.2 |
| 20260506171726 | 67 | 304 | 1.0 | 5.0 | 0.00 | 0.00 | 0.00 | 89 | 994.2 |
| 20260506170717 | 65 | 278 | 1.0 | 6.0 | 0.00 | 0.00 | 0.00 | 92 | 994.3 |
| 20260506165739 | 64 | 288 | 2.0 | 9.0 | 0.00 | 0.00 | 0.00 | 92 | 994.2 |
| 20260506164741 | 63 | 217 | 2.0 | 9.0 | 0.00 | 0.00 | 0.00 | 93 | 994.2 |
| 20260506163721 | 62 | 51 | 1.0 | 6.0 | 0.00 | 0.00 | 0.00 | 96 | 994.7 |
| 20260506162742 | 61 | 281 | 1.0 | 5.0 | 0.00 | 0.00 | 0.00 | 96 | 995.7 |
| 20260506161734 | 59 | 271 | 0.0 | 5.0 | 0.00 | 0.00 | 0.00 | 96 | 995.7 |
| 20260506160744 | 58 | 174 | 2.0 | 8.0 | 0.00 | 0.00 | 0.00 | 95 | 995.3 |
| 20260506153446 | 60 | 340 | 3.0 | 10.0 | 0.00 | 0.00 | 0.00 | 94 | 996.0 |
| 20260506152434 | 61 | 234 | 3.0 | 13.0 | 0.00 | 0.00 | 0.00 | 94 | 995.6 |
| 20260506151458 | 62 | 171 | 4.0 | 13.0 | 0.00 | 0.00 | 0.00 | 94 | 995.6 |
| 20260506150431 | 63 | 171 | 3.0 | 10.0 | 0.00 | 0.00 | 0.00 | 95 | 995.2 |
| 20260506145429 | 63 | 284 | 4.0 | 11.0 | 0.00 | 0.00 | 0.00 | 95 | 994.3 |
| 20260506144409 | 63 | 300 | 4.0 | 15.0 | 0.00 | 0.00 | 0.00 | 94 | 994.3 |
| 20260506143433 | 64 | 264 | 5.0 | 15.0 | 0.00 | 0.00 | 0.00 | 94 | 994.0 |
| 20260506140211 | 66 | 254 | 3.0 | 8.0 | 0.00 | 0.00 | 0.00 | 94 | 993.0 |
| 20260506135154 | 68 | 261 | 3.0 | 11.0 | 0.00 | 0.00 | 0.00 | 94 | 992.9 |
| 20260506133108 | 73 | 282 | 0.0 | 2.0 | 0.00 | 0.00 | 0.00 | 97 | 992.4 |
| 20260506132053 | 73 | 281 | 0.0 | 2.0 | 0.00 | 0.00 | 0.00 | 97 | 992.4 |
| 20260506125959 | 73 | 292 | 0.0 | 1.0 | 0.00 | 0.00 | 0.00 | 97 | 991.9 |
| 20260506125009 | 73 | 293 | 0.0 | 1.0 | 0.00 | 0.00 | 0.00 | 96 | 991.9 |
| 20260506123938 | 73 | 293 | 0.0 | 0.0 | 0.00 | 0.00 | 0.00 | 96 | 991.9 |
| 20260506122925 | 73 | 24 | 0.0 | 0.0 | 0.00 | 0.00 | 0.00 | 96 | 991.9 |
| 20260506120752 | 73 | 24 | 0.0 | 0.0 | 0.00 | 0.00 | 0.00 | 95 | 991.3 |
| 20260506115805 | 73 | 24 | 0.0 | 2.0 | 0.00 | 0.00 | 0.00 | 95 | 991.3 |
| 20260506114802 | 73 | 24 | 0.0 | 1.0 | 0.00 | 0.00 | 0.00 | 95 | 991.3 |
| 20260506113750 | 73 | 24 | 0.0 | 0.0 | 0.00 | 0.00 | 0.00 | 95 | 991.3 |
| 20260506112750 | 73 | 22 | 0.0 | 4.0 | 0.00 | 0.00 | 0.00 | 95 | 991.7 |
| 20260506111748 | 74 | 40 | 0.0 | 1.0 | 0.00 | 0.00 | 0.00 | 95 | 991.7 |
| 20260506103313 | 74 | 40 | 0.0 | 0.0 | 0.00 | 0.00 | 0.00 | 95 | 991.5 |
| 20260506102314 | 74 | 40 | 0.0 | 0.0 | 0.00 | 0.00 | 0.00 | 94 | 991.3 |
| 20260506101318 | 74 | 41 | 0.0 | 0.0 | 0.00 | 0.00 | 0.00 | 94 | 991.1 |
| 20260506100245 | 74 | 41 | 0.0 | 0.0 | 0.00 | 0.00 | 0.00 | 94 | 991.1 |
| 20260506094127 | 74 | 40 | 0.0 | 2.0 | 0.00 | 0.00 | 0.00 | 93 | 990.8 |
| 20260506093117 | 74 | 40 | 0.0 | 2.0 | 0.00 | 0.00 | 0.00 | 93 | 990.8 |
| 20260506092053 | 74 | 39 | 1.0 | 3.0 | 0.00 | 0.00 | 0.00 | 93 | 990.7 |
| 20260506091110 | 74 | 39 | 1.0 | 3.0 | 0.00 | 0.00 | 0.00 | 93 | 990.4 |
| 20260506090116 | 74 | 37 | 1.0 | 7.0 | 0.00 | 0.00 | 0.00 | 93 | 990.4 |
| 20260506085054 | 74 | 42 | 1.0 | 7.0 | 0.00 | 0.00 | 0.00 | 93 | 990.3 |
| 20260506084025 | 74 | 30 | 1.0 | 5.0 | 0.00 | 0.00 | 0.00 | 93 | 990.4 |
| 20260506082958 | 74 | 30 | 1.0 | 6.0 | 0.00 | 0.00 | 0.00 | 93 | 990.4 |
| 20260506082006 | 74 | 48 | 1.0 | 8.0 | 0.00 | 0.00 | 0.00 | 92 | 990.3 |
| 20260506072817 | 74 | 84 | 1.0 | 9.0 | 0.00 | 0.00 | 0.00 | 92 | 990.8 |
| 20260506071800 | 75 | 20 | 2.0 | 9.0 | 0.00 | 0.00 | 0.00 | 92 | 990.8 |
| 20260506070821 | 75 | 38 | 2.0 | 9.0 | 0.00 | 0.00 | 0.00 | 92 | 990.8 |
| 20260506061816 | 75 | 65 | 2.0 | 11.0 | 0.00 | 0.00 | 0.00 | 92 | 990.4 |
| 20260506060822 | 75 | 59 | 2.0 | 11.0 | 0.00 | 0.00 | 0.00 | 92 | 990.3 |
| 20260506050614 | 75 | 32 | 2.0 | 10.0 | 0.00 | 0.00 | 0.00 | 92 | 990.8 |
| 20260506044624 | 75 | 40 | 2.0 | 8.0 | 0.00 | 0.00 | 0.00 | 92 | 990.4 |
| 20260506043607 | 75 | 40 | 1.0 | 9.0 | 0.00 | 0.00 | 0.00 | 91 | 990.7 |
| 20260506041450 | 75 | 34 | 1.0 | 6.0 | 0.00 | 0.00 | 0.00 | 90 | 990.3 |
| 20260506040447 | 76 | 29 | 2.0 | 5.0 | 0.00 | 0.00 | 0.00 | 90 | 990.3 |
| 20260506035424 | 76 | 37 | 1.0 | 5.0 | 0.00 | 0.00 | 0.00 | 90 | 990.3 |
| 20260506032142 | 76 | 35 | 1.0 | 4.0 | 0.00 | 0.00 | 0.00 | 89 | 990.0 |
| 20260506031158 | 76 | 44 | 1.0 | 3.0 | 0.00 | 0.00 | 0.00 | 88 | 989.8 |
| 20260506030204 | 76 | 36 | 0.0 | 2.0 | 0.00 | 0.00 | 0.00 | 88 | 989.8 |
| 20260506024007 | 77 | 37 | 0.0 | 0.0 | 0.00 | 0.00 | 0.00 | 86 | 989.2 |
| 20260506023005 | 77 | 38 | 0.0 | 1.0 | 0.00 | 0.00 | 0.00 | 86 | 989.2 |
| 20260506021933 | 77 | 38 | 0.0 | 2.0 | 0.00 | 0.00 | 0.00 | 85 | 989.0 |
| 20260506015730 | 78 | 36 | 0.0 | 2.0 | 0.00 | 0.00 | 0.00 | 84 | 988.7 |
| 20260506014706 | 78 | 37 | 1.0 | 6.0 | 0.00 | 0.00 | 0.00 | 83 | 988.7 |
| 20260506013704 | 78 | 31 | 1.0 | 6.0 | 0.00 | 0.00 | 0.00 | 83 | 988.4 |
| 20260506012708 | 79 | 27 | 1.0 | 5.0 | 0.00 | 0.00 | 0.00 | 82 | 988.5 |
| 20260506011716 | 79 | 26 | 1.0 | 4.0 | 0.00 | 0.00 | 0.00 | 81 | 988.5 |
| 20260506010741 | 79 | 27 | 1.0 | 6.0 | 0.00 | 0.00 | 0.00 | 81 | 988.3 |
| 20260506005752 | 80 | 34 | 1.0 | 6.0 | 0.00 | 0.00 | 0.00 | 80 | 988.3 |
| 20260506004753 | 80 | 34 | 2.0 | 5.0 | 0.00 | 0.00 | 0.00 | 79 | 988.3 |
| 20260506003723 | 81 | 17 | 2.0 | 5.0 | 0.00 | 0.00 | 0.00 | 79 | 988.5 |
| 20260506002741 | 81 | 51 | 2.0 | 6.0 | 0.00 | 0.00 | 0.00 | 78 | 988.5 |
| 20260506001731 | 81 | 22 | 2.0 | 9.0 | 0.00 | 0.00 | 0.00 | 78 | 988.5 |
| 20260506000709 | 81 | 47 | 2.0 | 9.0 | 0.00 | 0.00 | 0.00 | 79 | 988.4 |
| 20260505235715 | 81 | 30 | 2.0 | 6.0 | 0.00 | 0.00 | 0.00 | 78 | 988.5 |
| 20260505234648 | 82 | 46 | 2.0 | 8.0 | 0.00 | 0.00 | 0.00 | 77 | 988.5 |
| 20260505233640 | 82 | 28 | 2.0 | 8.0 | 0.00 | 0.00 | 0.00 | 77 | 988.2 |
| 20260505232618 | 82 | 39 | 2.0 | 10.0 | 0.00 | 0.00 | 0.00 | 77 | 988.1 |
| 20260505231609 | 82 | 41 | 3.0 | 10.0 | 0.00 | 0.00 | 0.00 | 76 | 988.1 |
| 20260505230625 | 83 | 30 | 2.0 | 9.0 | 0.00 | 0.00 | 0.00 | 76 | 988.0 |
| 20260505224507 | 83 | 27 | 2.0 | 8.0 | 0.00 | 0.00 | 0.00 | 75 | 987.8 |
| 20260505222259 | 84 | 65 | 2.0 | 10.0 | 0.00 | 0.00 | 0.00 | 75 | 987.8 |
| 20260505214928 | 85 | 40 | 2.0 | 9.0 | 0.00 | 0.00 | 0.00 | 73 | 988.2 |
| 20260505213857 | 85 | 43 | 2.0 | 10.0 | 0.00 | 0.00 | 0.00 | 74 | 988.1 |
| 20260505212922 | 85 | 23 | 3.0 | 10.0 | 0.00 | 0.00 | 0.00 | 72 | 988.1 |
| 20260505211915 | 86 | 42 | 2.0 | 9.0 | 0.00 | 0.00 | 0.00 | 71 | 988.3 |